sat.trackr.live / text

‹ back to catalog

STARLINK-11700 [DTC]

NORAD 64068 · 2025-107E

PAYLOAD ACTIVE UNKNOWN

§ Identity

Operator
Country
US
Launch date
2025-05-21
Launch site
AFETR
Launch vehicle
Mass (kg)
RCS (m²)

Purposes: comms

External: N2YO · Heavens-Above · Gunter

§ Orbital elements

Epoch: 2026-05-24T14:36:19.931328Z

Period
91.66 min
Inclination
43.0026°
Eccentricity
0.0002486
Mean motion
15.70969003 rev/d
Perigee alt
354.5 km
Apogee alt
357.8 km
Semi-major
6,734.3 km
B*
1.8023e-3
RAAN
1.0226°
Arg perigee
270.8663°
Mean anomaly
89.1920°
Rev number
5,923

§ Raw data

STARLINK-11700 [DTC]1 64068U 25107E   26144.60856402  .00238875  00000+0  18023-2 0  99952 64068  43.0026   1.0226 0002486 270.8663  89.1920 15.70969003 59232

JSON: /api/v1/satellites/64068 · /tle

For live sub-satellite position, see the globe view (requires WebGL).

§ Visibility from observer

Set your observer location to see the next 7 days of passes ≥ 10°. The values pass through the URL so the page stays shareable.

No JS? Fill the form by hand. The geolocation button needs JavaScript.